IW3HBX-13 Weather Reports


Display with metric or nautical units.
time (UTC)temp
F
wind
direction
speed
MPH
gust
MPH
rain 1hr
in
rain 24hr
in
rain mn
in
humidity
%
barometer
mb
20260831121807 89 182 1.0 4.0 0.00 0.00 0.00 45 1014.5
20260831121209 88 238 2.0 5.0 0.00 0.00 0.00 44 1014.4
20260831120607 87 227 4.0 5.0 0.00 0.00 0.00 44 1014.5
20260831115410 87 269 3.0 4.0 0.00 0.00 0.00 44 1014.6
20260831114808 87 245 2.0 3.0 0.00 0.00 0.00 44 1014.6
20260831114210 87 238 5.0 8.0 0.00 0.00 0.00 44 1014.7
20260831113608 87 228 5.0 7.0 0.00 0.00 0.00 44 1014.7
20260831113007 87 151 2.0 2.0 0.00 0.00 0.00 49 1014.7
20260831112407 89 224 1.0 2.0 0.00 0.00 0.00 44 1014.8
20260831111807 88 220 1.0 2.0 0.00 0.00 0.00 44 1014.8
20260831111207 88 260 1.0 3.0 0.00 0.00 0.00 45 1014.9
20260831105407 87 219 1.0 2.0 0.00 0.00 0.00 46 1015.0
20260831104807 87 200 2.0 5.0 0.00 0.00 0.00 45 1014.9
20260831104210 88 173 2.0 4.0 0.00 0.00 0.00 45 1015.0
20260831103609 87 175 1.0 4.0 0.00 0.00 0.00 48 1015.1
20260831103007 88 136 2.0 4.0 0.00 0.00 0.00 46 1015.0
20260831102408 88 114 2.0 2.0 0.00 0.00 0.00 48 1015.1
20260831101808 87 147 2.0 4.0 0.00 0.00 0.00 48 1015.1
20260831101207 86 164 1.0 2.0 0.00 0.00 0.00 48 1015.1
20260831100607 84 300 2.0 2.0 0.00 0.00 0.00 48 1015.2
20260831095407 86 204 1.0 4.0 0.00 0.00 0.00 48 1015.3
20260831094807 84 119 2.0 3.0 0.00 0.00 0.00 48 1015.3
20260831094207 85 145 1.0 2.0 0.00 0.00 0.00 49 1015.4
20260831093607 85 188 1.0 2.0 0.00 0.00 0.00 48 1015.3
20260831093009 85 248 1.0 2.0 0.00 0.00 0.00 52 1015.4
20260831092407 84 106 1.0 2.0 0.00 0.00 0.00 50 1015.6
20260831091808 85 243 0.0 0.0 0.00 0.00 0.00 49 1015.6
20260831091240 84 243 0.0 2.0 0.00 0.00 0.00 50 1015.5
20260831091209 84 243 0.0 2.0 0.00 0.00 0.00 50 1015.5
20260831090607 84 230 0.0 1.0 0.00 0.00 0.00 52 1015.5
20260831085407 83 178 1.0 2.0 0.00 0.00 0.00 53 1015.5
20260831084807 85 126 0.0 0.0 0.00 0.00 0.00 52 1015.5
20260831084208 84 34 1.0 2.0 0.00 0.00 0.00 54 1015.6
20260831083607 84 360 0.0 1.0 0.00 0.00 0.00 56 1015.5
20260831083007 83 34 1.0 2.0 0.00 0.00 0.00 56 1015.5
20260831082409 83 40 1.0 2.0 0.00 0.00 0.00 57 1015.4
20260831081810 83 280 1.0 2.0 0.00 0.00 0.00 58 1015.3
20260831081210 82 336 2.0 2.0 0.00 0.00 0.00 58 1015.4
20260831080607 82 288 0.0 2.0 0.00 0.00 0.00 58 1015.3
20260831075408 81 322 2.0 4.0 0.00 0.00 0.00 59 1015.2
20260831074807 81 58 1.0 2.0 0.00 0.00 0.00 58 1015.2
20260831074207 81 45 2.0 3.0 0.00 0.00 0.00 60 1015.1
20260831073608 81 41 0.0 1.0 0.00 0.00 0.00 57 1015.1
20260831073007 80 59 1.0 2.0 0.00 0.00 0.00 61 1015.1
20260831072407 81 65 0.0 2.0 0.00 0.00 0.00 59 1015.1
20260831071807 81 66 0.0 2.0 0.00 0.00 0.00 59 1015.1
20260831071207 80 66 0.0 1.0 0.00 0.00 0.00 60 1015.1
20260831070608 78 57 0.0 1.0 0.00 0.00 0.00 64 1015.0
20260831065407 77 67 2.0 3.0 0.00 0.00 0.00 64 1015.0
20260831064807 78 65 2.0 2.0 0.00 0.00 0.00 64 1014.9
20260831064207 77 63 1.0 3.0 0.00 0.00 0.00 65 1014.9
20260831063610 78 55 0.0 1.0 0.00 0.00 0.00 60 1015.0
20260831063007 78 337 0.0 0.0 0.00 0.00 0.00 61 1015.0
20260831062407 78 337 0.0 0.0 0.00 0.00 0.00 61 1015.0
20260831061810 77 301 0.0 0.0 0.00 0.00 0.00 70 1015.0
20260831061209 77 301 0.0 0.0 0.00 0.00 0.00 71 1015.0
20260831060610 77 301 0.0 0.0 0.00 0.00 0.00 71 1014.9
20260831055406 76 301 0.0 0.0 0.00 0.00 0.00 73 1014.8
20260831054806 74 301 0.0 0.0 0.00 0.00 0.00 76 1014.8
20260831054206 74 301 0.0 0.0 0.00 0.00 0.00 80 1014.8
20260831053608 74 301 0.0 0.0 0.00 0.00 0.00 78 1014.7
20260831053006 73 301 0.0 0.0 0.00 0.00 0.00 82 1014.6
20260831052408 72 301 0.0 0.0 0.00 0.00 0.00 85 1014.5
20260831051806 72 301 0.0 0.0 0.00 0.00 0.00 86 1014.6
20260831051209 71 301 0.0 0.0 0.00 0.00 0.00 87 1014.6
20260831050608 70 301 0.0 0.0 0.00 0.00 0.00 88 1014.5
20260831045406 69 301 0.0 0.0 0.00 0.00 0.00 92 1014.5
20260831044809 69 301 0.0 0.0 0.00 0.00 0.00 92 1014.3
20260831044206 69 301 0.0 0.0 0.00 0.00 0.00 92 1014.5
20260831043608 69 301 0.0 0.0 0.00 0.00 0.00 92 1014.4
20260831043008 69 301 0.0 0.0 0.00 0.00 0.00 92 1014.4
20260831042406 69 295 0.0 0.0 0.00 0.00 0.00 92 1014.3
20260831041806 69 295 0.0 0.0 0.00 0.00 0.00 92 1014.3
20260831041207 69 295 0.0 0.0 0.00 0.00 0.00 92 1014.3
20260831040608 69 295 0.0 0.0 0.00 0.00 0.00 92 1014.3
20260831035406 69 295 0.0 0.0 0.00 0.00 0.00 91 1014.4
20260831034807 69 295 0.0 0.0 0.00 0.00 0.00 92 1014.5
20260831034209 69 295 0.0 0.0 0.00 0.00 0.00 92 1014.5
20260831033609 69 295 0.0 0.0 0.00 0.00 0.00 92 1014.6
20260831033006 69 295 0.0 0.0 0.00 0.00 0.00 92 1014.6
20260831032409 69 295 0.0 0.0 0.00 0.00 0.00 92 1014.6
20260831031807 69 295 0.0 0.0 0.00 0.00 0.00 92 1014.7
20260831031207 69 295 0.0 0.0 0.00 0.00 0.00 92 1014.7
20260831030606 69 295 0.0 0.0 0.00 0.00 0.00 94 1014.8
20260831025410 69 295 0.0 0.0 0.00 0.00 0.00 94 1014.8
20260831024806 69 295 0.0 0.0 0.00 0.00 0.00 94 1014.7
20260831024209 69 295 0.0 0.0 0.00 0.00 0.00 94 1014.8
20260831023607 69 295 0.0 0.0 0.00 0.00 0.00 94 1014.7
20260831023007 70 295 0.0 0.0 0.00 0.00 0.00 92 1014.7
20260831022406 70 295 0.0 0.0 0.00 0.00 0.00 92 1014.6
20260831021807 70 295 1.0 2.0 0.00 0.00 0.00 92 1014.6
20260831021209 70 295 0.0 0.0 0.00 0.00 0.00 92 1014.7
20260831020606 70 295 0.0 0.0 0.00 0.00 0.00 92 1014.7
20260831015408 70 295 0.0 0.0 0.00 0.00 0.00 92 1014.7
20260831014806 70 295 0.0 0.0 0.00 0.00 0.00 92 1014.7
20260831014206 70 295 0.0 0.0 0.00 0.00 0.00 94 1014.7
20260831013641 70 295 0.0 0.0 0.00 0.00 0.00 95 1014.8
20260831013609 70 295 0.0 0.0 0.00 0.00 0.00 95 1014.8
20260831013010 70 295 0.0 0.0 0.00 0.00 0.00 94 1014.9
20260831012407 70 295 0.0 0.0 0.00 0.00 0.00 95 1014.9
20260831011806 70 295 0.0 0.0 0.00 0.00 0.00 95 1014.8
20260831011206 70 295 0.0 0.0 0.00 0.00 0.00 95 1014.8
20260831010741 71 295 0.0 0.0 0.00 0.00 0.00 95 1014.7
20260831010606 71 295 0.0 0.0 0.00 0.00 0.00 95 1014.7
20260831005408 71 295 0.0 0.0 0.00 0.00 0.00 95 1014.9
20260831004807 71 295 0.0 0.0 0.00 0.00 0.00 95 1014.8
20260831004207 71 295 0.0 0.0 0.00 0.00 0.00 95 1014.8
20260831003610 71 295 0.0 0.0 0.00 0.00 0.00 94 1014.8
20260831003007 71 295 0.0 0.0 0.00 0.00 0.00 94 1014.9
20260831002407 71 295 0.0 0.0 0.00 0.00 0.00 94 1014.8
20260831001807 71 295 0.0 0.0 0.00 0.00 0.00 94 1014.8
20260831001207 71 295 0.0 0.0 0.00 0.00 0.00 94 1014.9
20260831000607 71 295 0.0 0.0 0.00 0.00 0.00 94 1014.9
20260830235409 71 295 0.0 0.0 0.00 0.00 0.00 94 1014.9
20260830234807 71 295 0.0 0.0 0.00 0.00 0.00 94 1014.9
20260830234207 71 295 0.0 0.0 0.00 0.00 0.00 92 1014.9
20260830233607 72 295 0.0 0.0 0.00 0.00 0.00 92 1014.9
20260830233007 73 295 0.0 0.0 0.00 0.00 0.00 91 1014.9
20260830232407 73 295 0.0 0.0 0.00 0.00 0.00 91 1014.9
20260830231807 73 295 0.0 0.0 0.00 0.00 0.00 90 1015.0
20260830231207 73 295 0.0 0.0 0.00 0.00 0.00 88 1015.0
20260830230607 73 295 0.0 0.0 0.00 0.00 0.00 90 1015.0
20260830225407 73 295 0.0 0.0 0.00 0.00 0.00 90 1015.0
20260830224807 73 295 0.0 0.0 0.00 0.00 0.00 90 1015.0
20260830224207 73 295 0.0 0.0 0.00 0.00 0.00 90 1015.1
20260830223607 74 295 0.0 0.0 0.00 0.00 0.00 86 1015.1
20260830223008 74 295 0.0 0.0 0.00 0.00 0.00 86 1015.2
20260830222407 73 295 0.0 0.0 0.00 0.00 0.00 90 1015.1
20260830221807 73 295 0.0 0.0 0.00 0.00 0.00 90 1015.1
20260830221208 73 295 0.0 0.0 0.00 0.00 0.00 90 1015.1
20260830220607 74 295 0.0 0.0 0.00 0.00 0.00 88 1015.1
20260830215409 74 295 0.0 0.0 0.00 0.00 0.00 88 1015.1
20260830214807 75 295 0.0 0.0 0.00 0.00 0.00 87 1015.1
20260830214207 75 295 0.0 0.0 0.00 0.00 0.00 86 1015.1
20260830213607 75 295 0.0 0.0 0.00 0.00 0.00 86 1015.1
20260830213007 75 295 0.0 1.0 0.00 0.00 0.00 86 1015.0
20260830212407 75 295 1.0 2.0 0.00 0.00 0.00 85 1015.0
20260830211807 75 295 2.0 2.0 0.00 0.00 0.00 86 1015.0
20260830211207 76 167 0.0 0.0 0.00 0.00 0.00 83 1014.9
20260830210609 77 167 0.0 0.0 0.00 0.00 0.00 82 1014.9
20260830205407 77 167 0.0 0.0 0.00 0.00 0.00 81 1014.7
20260830204807 77 167 0.0 0.0 0.00 0.00 0.00 80 1014.8
20260830204207 77 167 0.0 0.0 0.00 0.00 0.00 80 1014.8
20260830203608 77 167 0.0 0.0 0.00 0.00 0.00 80 1014.7
20260830203007 76 189 0.0 0.0 0.00 0.00 0.00 80 1014.7
20260830202408 77 189 0.0 0.0 0.00 0.00 0.00 81 1014.8
20260830201807 77 189 0.0 0.0 0.00 0.00 0.00 78 1014.8
20260830201207 77 189 0.0 0.0 0.00 0.00 0.00 78 1014.8
20260830200607 77 189 0.0 0.0 0.00 0.00 0.00 78 1014.8
20260830195409 77 189 0.0 0.0 0.00 0.00 0.00 78 1014.7
20260830194806 77 189 0.0 0.0 0.00 0.00 0.00 80 1014.8
20260830194206 77 189 0.0 0.0 0.00 0.00 0.00 78 1014.7
20260830193609 78 189 0.0 0.0 0.00 0.00 0.00 77 1014.6
20260830193007 78 189 0.0 0.0 0.00 0.00 0.00 76 1014.6
20260830192409 78 189 0.0 0.0 0.00 0.00 0.00 76 1014.6
20260830191807 78 189 0.0 0.0 0.00 0.00 0.00 75 1014.6
20260830191207 78 189 0.0 0.0 0.00 0.00 0.00 78 1014.5
20260830190607 79 189 0.0 0.0 0.00 0.00 0.00 71 1014.5
20260830185408 80 158 0.0 0.0 0.00 0.00 0.00 70 1014.5
20260830184810 80 158 0.0 0.0 0.00 0.00 0.00 72 1014.4
20260830184209 81 156 0.0 0.0 0.00 0.00 0.00 67 1014.3
20260830183607 81 156 0.0 0.0 0.00 0.00 0.00 69 1014.4
20260830183007 81 156 0.0 0.0 0.00 0.00 0.00 69 1014.2
20260830182409 81 156 0.0 0.0 0.00 0.00 0.00 67 1014.2
20260830181810 82 156 0.0 0.0 0.00 0.00 0.00 71 1014.1
20260830181207 82 156 0.0 0.0 0.00 0.00 0.00 67 1014.0
20260830180607 82 156 0.0 0.0 0.00 0.00 0.00 65 1014.0
20260830175409 82 156 0.0 0.0 0.00 0.00 0.00 64 1013.9
20260830174809 83 156 0.0 0.0 0.00 0.00 0.00 65 1013.9
20260830174207 84 155 0.0 0.0 0.00 0.00 0.00 63 1013.8
20260830173607 84 135 0.0 0.0 0.00 0.00 0.00 63 1013.8
20260830173007 85 135 0.0 1.0 0.00 0.00 0.00 59 1013.8
20260830172407 85 135 0.0 1.0 0.00 0.00 0.00 59 1013.8
20260830171807 86 133 0.0 0.0 0.00 0.00 0.00 57 1013.7
20260830171207 86 133 0.0 0.0 0.00 0.00 0.00 56 1013.9
20260830170608 87 133 1.0 2.0 0.00 0.00 0.00 56 1013.9
20260830165407 88 136 0.0 0.0 0.00 0.00 0.00 52 1013.9
20260830164808 86 160 0.0 1.0 0.00 0.00 0.00 53 1014.0
20260830164208 86 133 2.0 3.0 0.00 0.00 0.00 53 1014.0
20260830163607 87 123 1.0 2.0 0.00 0.00 0.00 52 1014.1
20260830163009 86 124 2.0 3.0 0.00 0.00 0.00 52 1014.0
20260830162407 86 146 3.0 4.0 0.00 0.00 0.00 52 1013.9
20260830161809 87 153 2.0 4.0 0.00 0.00 0.00 52 1014.1
20260830161207 86 155 2.0 3.0 0.00 0.00 0.00 52 1014.0
20260830160607 87 117 2.0 3.0 0.00 0.00 0.00 49 1014.2
20260830155407 88 146 1.0 4.0 0.00 0.00 0.00 51 1014.1
20260830154807 87 146 1.0 2.0 0.00 0.00 0.00 49 1014.1
20260830154210 89 138 1.0 3.0 0.00 0.00 0.00 48 1014.2
20260830153607 90 216 2.0 5.0 0.00 0.00 0.00 45 1014.2
20260830153009 88 141 1.0 5.0 0.00 0.00 0.00 48 1014.1
20260830152410 88 167 2.0 3.0 0.00 0.00 0.00 45 1014.2
20260830151810 89 184 2.0 4.0 0.00 0.00 0.00 46 1014.1
20260830151207 89 142 3.0 4.0 0.00 0.00 0.00 46 1014.1
20260830150607 89 140 2.0 3.0 0.00 0.00 0.00 45 1014.1
20260830145408 89 190 2.0 4.0 0.00 0.00 0.00 45 1014.1
20260830144807 89 141 3.0 6.0 0.00 0.00 0.00 46 1014.1
20260830144209 90 182 2.0 2.0 0.00 0.00 0.00 44 1014.2
20260830143608 90 166 1.0 2.0 0.00 0.00 0.00 41 1014.3
20260830143009 90 114 2.0 3.0 0.00 0.00 0.00 42 1014.3
20260830142407 89 184 1.0 3.0 0.00 0.00 0.00 43 1014.3
20260830141807 88 151 2.0 3.0 0.00 0.00 0.00 43 1014.4
20260830141207 86 70 2.0 5.0 0.00 0.00 0.00 45 1014.3
20260830140610 89 104 1.0 3.0 0.00 0.00 0.00 42 1014.4
20260830135410 90 104 2.0 5.0 0.00 0.00 0.00 42 1014.5
20260830134807 91 139 3.0 5.0 0.00 0.00 0.00 42 1014.5
20260830134208 90 230 0.0 2.0 0.00 0.00 0.00 41 1014.6
20260830133607 89 220 1.0 3.0 0.00 0.00 0.00 41 1014.6
20260830133007 89 115 1.0 2.0 0.00 0.00 0.00 40 1014.7
20260830132407 89 94 1.0 2.0 0.00 0.00 0.00 41 1014.8
20260830131807 87 37 2.0 3.0 0.00 0.00 0.00 41 1014.8
20260830131208 87 353 2.0 4.0 0.00 0.00 0.00 42 1014.8
20260830130607 88 60 1.0 2.0 0.00 0.00 0.00 41 1014.9
20260830125407 86 60 4.0 6.0 0.00 0.00 0.00 40 1015.1
20260830124807 86 18 4.0 6.0 0.00 0.00 0.00 42 1015.1
20260830124210 87 64 0.0 1.0 0.00 0.00 0.00 42 1015.1
20260830123610 87 80 2.0 3.0 0.00 0.00 0.00 43 1015.1
20260830123007 86 43 3.0 5.0 0.00 0.00 0.00 44 1015.1
20260830122407 86 66 1.0 5.0 0.00 0.00 0.00 44 1015.1